www.pogodaiklimat.ru
ПОГОДА в Гожув-Велькопольски

Архив погоды в Гожув-Велькопольски (Польша)

Время
(UTC), дата
10 26.09
11 26.09
12 26.09
13 26.09
14 26.09
15 26.09
16 26.09
17 26.09
18 26.09
19 26.09
20 26.09
21 26.09
22 26.09
23 26.09
00 27.09
01 27.09
02 27.09
03 27.09
04 27.09
05 27.09
06 27.09
07 27.09
08 27.09
09 27.09
10 27.09
11 27.09
12 27.09
13 27.09
14 27.09
15 27.09
16 27.09
17 27.09
18 27.09
19 27.09
20 27.09
21 27.09
22 27.09
23 27.09
00 28.09
01 28.09
02 28.09
03 28.09
04 28.09
05 28.09
06 28.09
07 28.09
08 28.09
09 28.09
10 28.09
11 28.09
12 28.09
13 28.09
14 28.09
15 28.09
16 28.09
17 28.09
18 28.09
19 28.09
20 28.09
21 28.09
22 28.09
23 28.09
00 29.09
01 29.09
02 29.09
03 29.09
04 29.09
05 29.09
06 29.09
07 29.09
08 29.09
09 29.09
10 29.09
11 29.09
12 29.09
13 29.09
14 29.09
15 29.09
16 29.09
17 29.09
18 29.09
19 29.09
20 29.09
21 29.09
22 29.09
23 29.09
00 30.09
01 30.09
02 30.09
03 30.09
04 30.09
05 30.09
06 30.09
07 30.09
08 30.09
09 30.09
10 30.09
11 30.09
12 30.09
13 30.09
14 30.09
15 30.09
16 30.09
17 30.09
18 30.09
19 30.09
20 30.09
21 30.09
22 30.09
23 30.09
00 1.10
01 1.10
02 1.10
03 1.10
04 1.10
05 1.10
06 1.10
07 1.10
08 1.10
09 1.10
10 1.10
11 1.10
12 1.10
13 1.10
14 1.10
15 1.10
16 1.10
17 1.10
18 1.10
19 1.10
20 1.10
21 1.10
22 1.10
23 1.10
00 2.10
01 2.10
02 2.10
03 2.10
04 2.10
05 2.10
06 2.10
07 2.10
08 2.10
09 2.10
10 2.10
11 2.10
12 2.10
13 2.10
14 2.10
15 2.10
16 2.10
17 2.10
18 2.10
19 2.10
20 2.10
21 2.10
22 2.10
23 2.10
00 3.10
01 3.10
02 3.10
03 3.10
04 3.10
05 3.10
06 3.10
07 3.10
08 3.10
Ветер
(напр.,м/с)
Видим. Явления Облачность Т
(С)
Тd
(С)
f
(%)
Тe
(С)
Тes
(С)
Комфортность P
(гПа)
Po
(гПа)
Тmin
(С)
Tmax
(С)
R
(мм)
R24
(мм)
S
(см)
ЮЗ 2 20 км 8/1 300 м
[Cu med, cong Ac trans Ci fib]
+12.8 +10.2 84 +12 +16 1006.1 997.2
Ю 3 30 км 6/3 600 м
[Cu med, cong Ac trans Ci fib]
+15.0 +7.8 62 +14 +18 1005.4 996.6
ЮЗ 4 35 км {дождь} 8/6 600 м
[Cu med, cong Ci fib]
+16.3 +6.4 52 +16 +17 1004.6 995.9 0.3
Ю 3 45 км 8/6 1000 м
[Cu med, cong Ac trans Ci fib]
+15.6 +6.8 56 +15 +16 1004.0 995.2
Ю 3 45 км 6/5 1000 м
[Sc diur, vesp Ac trans Ci fib]
+17.1 +6.9 51 +17 +18 1003.3 994.6
Ю 3 50 км 5/1 1000 м
[Sc diur, vesp Ac trans Ci fib]
+16.2 +6.6 53 +16 +17 1002.8 994.1
Ю 3 50 км 4/1 1000 м
[Sc diur, vesp Ac trans Ci fib]
+14.6 +7.4 62 +14 +14 1002.8 994.0
Ю 2 45 км 5/0
[Ac und Ci fib]
+13.1 +7.5 69 +12 +12 1002.6 993.8
ЮВ 2 45 км 5/0
[Ac trans Ci fib]
+12.9 +7.6 70 +12 +12 1002.3 993.5 +11.0 +17.3 0.3
ЮВ 3 35 км н/о +12.0 +7.7 75 +10 +10 1002.0 993.1
ЮВ 2 30 км н/о +11.0 +8.0 82 +10 +10 1001.7 992.8
Ю 1 18 км н/о +11.1 +8.5 84 +11 +11 1001.5 992.6
ЮВ 2 30 км н/о +10.9 +8.5 85 +10 +10 1000.8 991.9
ЮВ 2 30 км н/о +10.0 +8.1 88 +8 +8 1000.0 991.1
ЮВ 2 20 км н/о +9.5 +8.1 91 +8 +8 999.4 990.5
Ю 2 16 км н/о +9.1 +7.9 92 +7 +7 998.8 989.9
ЮВ 2 13 км н/о +8.9 +7.8 93 +7 +7 998.1 989.2
ЮВ 2 14 км н/о +9.3 +8.2 93 +7 +7 997.6 988.7
ЮВ 2 15 км морось н/о +9.4 +8.2 92 +8 +8 996.9 988.0
ЮВ 2 18 км слаб. ливневой дождь н/о +9.6 +8.4 92 +8 +8 996.5 987.6
ЮВ 2 20 км 10/0
[Ac As]
+9.9 +8.5 91 +8 +8 996.4 987.5 +8.9 +12.9 0.1 0.4
ЮВ 2 30 км в посл. час дождь 10/5 1500 м
[Sc Ac As]
+10.2 +8.5 89 +9 +9 996.3 987.4
Ю 2 20 км слаб. дождь 10/9 1500 м
[Sc]
+10.8 +8.9 88 +9 +10 996.4 987.6
ЮВ 2 20 км слаб. дождь 10/9 300 м
[Cu Sc]
+11.9 +9.3 84 +11 +11 996.2 987.4
Ю 4 15 км слаб. дождь 10/5 600 м
[Cu med, cong Ac As]
+12.4 +9.8 84 +10 +11 996.0 987.2
Ю 3 10 км слаб. дождь {ливн. дождь} 10/6 600 м
[Cu med, cong Ac As]
+11.6 +10.3 92 +10 +10 995.9 987.1
Ю 3 20 км в посл. час ливневой дождь 10/6 600 м
[Cb calv Ac As]
+12.1 +10.8 92 +10 +11 995.6 986.8 0.8
Ю 3 15 км слаб. ливневой дождь 10/9 300 м
[Cb calv]
+12.9 +9.9 82 +12 +12 995.4 986.6
Ю 3 10 км ливневой дождь 10/8 600 м
[Cb cap Ac As]
+11.9 +10.5 91 +10 +10 995.6 986.8
ЮЗ 3 15 км слаб. ливневой дождь 10/8 300 м
[Cb cap Ac As]
+11.4 +9.8 90 +10 +10 995.7 986.9
ЮЗ 2 30 км в посл. час ливневой дождь 9/6 270 м
[St Ac As]
+11.0 +9.7 92 +10 +10 996.0 987.2
ЮЗ 2 50 км в посл. час дождь 9/1 200 м
[St Ac As]
+9.9 +8.7 92 +8 +8 996.6 987.7
Ю 1 20 км {ливн. дождь, дождь} 10/9 120 м
[Sc]
+9.8 +9.2 96 +9 +9 996.9 988.0 +9.6 +13.2 3
ЮЗ 2 10 км н/о +9.9 +9.4 97 +8 +8 997.1 988.2
ЮЗ 2 11 км дымка н/о +9.8 +9.5 98 +8 +8 997.3 988.4
ЮЗ 2 10 км в посл. час морось н/о +9.8 +9.3 97 +8 +8 997.6 988.7
З 2 8000 м дымка н/о +9.0 +8.5 97 +7 +7 997.7 988.8
ЮЗ 2 100 м туман н/о +8.0 +7.7 98 +6 +6 997.8 988.9
ЮЗ 3 11 км в посл. час туман н/о +7.7 +7.4 98 +5 +5 998.0 989.0 0.0
ЮЗ 2 1500 м дымка н/о +6.8 +6.5 98 +4 +4 997.8 988.8
Ю 2 800 м туман н/о +6.5 +6.2 98 +4 +4 997.5 988.5
Ю 1 2200 м в посл. час туман н/о +6.3 +6.0 98 +5 +5 997.5 988.5
Ю 2 10 км н/о +6.4 +6.1 98 +4 +4 997.4 988.4
Ю 2 6000 м дымка н/о +6.2 +5.9 98 +4 +4 997.2 988.2
Ю 2 8000 м дымка 9/6 1500 м
[Sc Ac trans Ci fib]
+6.3 +6.0 98 +4 +4 997.0 988.0 +6.0 +9.9 0.0 2.8
Ю 2 6000 м дымка 10/9 50 м
[St]
+6.7 +6.4 98 +4 +4 997.3 988.3
ЮЗ 2 10 км 9/9 100 м
[Sc]
+7.7 +7.3 97 +5 +6 997.1 988.2
Ю 1 30 км 4/4 300 м
[Cu med, cong Ci fib]
+10.8 +8.0 83 +11 +14 996.6 987.8
ЮЗ 2 45 км 9/9 300 м
[Cu med, cong]
+10.8 +7.3 79 +10 +10 996.6 987.8
ЮЗ 3 45 км 9/9 600 м
[Cu med, cong]
+11.7 +6.8 72 +10 +11 996.6 987.8
ЮЗ 2 45 км 9/5 600 м
[Cb calv Cs]
+12.1 +5.7 65 +11 +14 996.4 987.6
ЮЗ 2 45 км 9/8 600 м
[Cb cap Ac trans]
+11.6 +6.7 72 +11 +11 996.4 987.6
ЮЗ 2 30 км слаб. ливневой дождь 10/9 600 м
[Cb cap]
+11.2 +6.7 74 +10 +10 996.5 987.7
ЮЗ 2 30 км слаб. ливневой дождь 10/9 600 м
[Cb cap]
+10.0 +7.6 85 +8 +9 997.0 988.1
ЮЗ 2 20 км слаб. ливневой дождь 10/9 300 м
[Cb cap]
+8.4 +7.0 91 +6 +6 997.3 988.4
ЮЗ 1 15 км слаб. дождь {ливн. дождь} 10/5 600 м
[Sc Ac As]
+8.3 +7.5 95 +7 +7 997.5 988.6
ЮЗ 1 15 км слаб. дождь {ливн. дождь} 10/9 1000 м
[Sc]
+8.2 +7.6 96 +7 +7 997.8 988.9 +6.2 +12.6 0.6
ЮЗ 1 8000 м в посл. час морось н/о +8.1 +7.7 97 +7 +7 998.4 989.5
ЮЗ 2 6000 м дымка н/о +7.9 +7.5 97 +6 +6 998.7 989.7
З 2 7000 м ливневой дождь н/о +8.0 +7.6 97 +6 +6 999.0 990.0
З 1 5000 м дымка н/о +7.7 +7.3 97 +7 +7 999.5 990.5
ЮЗ 2 4900 м дымка н/о +7.6 +7.3 98 +5 +5 1000.0 991.0
ЮЗ 2 1300 м дымка н/о +7.3 +7.0 98 +5 +5 1000.2 991.2 0.1
ЮЗ 2 300 м туман н/о +7.0 +6.7 98 +5 +5 1000.4 991.4
З 2 1700 м в посл. час туман н/о +7.2 +7.1 99 +5 +5 1000.6 991.6
З 3 1400 м в посл. час туман н/о +6.9 +6.8 99 +4 +4 1000.9 991.9
З 2 2500 м дымка н/о +6.8 +6.7 99 +4 +4 1001.3 992.3
ЮЗ 2 200 м туман н/о +6.4 +6.3 99 +4 +4 1001.8 992.8
Ю 2 400 м туман 10/10 60 м
[St]
+5.6 +5.5 99 +3 +3 1002.4 993.3 +5.4 +8.2 0.1 0.7
Ю 1 800 м туман 10/10 60 м
[St]
+6.4 +6.3 99 +5 +5 1002.5 993.5
ЮЗ 2 5000 м в посл. час туман 10/10 120 м
[St]
+7.1 +7.0 99 +5 +5 1002.8 993.8
ЮЗ 2 8000 м дымка {туман} 10/9 120 м
[St]
+8.6 +7.7 94 +7 +7 1003.2 994.2
ЮЗ 2 20 км 9/9 270 м
[St]
+10.0 +7.4 84 +8 +9 1003.6 994.7
ЮЗ 2 25 км 9/8 300 м
[Cu med, cong Ci sp]
+12.2 +7.3 72 +11 +13 1004.0 995.1
ЮЗ 2 30 км {туман} 9/9 600 м
[Cu Sc]
+12.0 +6.9 71 +11 +12 1004.2 995.3
З 2 35 км 9/9 600 м
[Cu Sc]
+12.0 +6.7 70 +11 +12 1004.5 995.6
В 1 30 км 9/9 600 м
[Cu Sc]
+12.0 +7.1 72 +12 +12 1004.8 995.9
В 1 30 км 9/9 600 м
[Cu Sc]
+11.9 +7.0 72 +12 +12 1005.2 996.3
штиль 0 30 км 9/9 1500 м
[Sc]
+11.9 +6.6 70 +11 +11 1005.7 996.8
ЮВ 1 30 км 8/8 1500 м
[Sc Ci fib]
+10.9 +7.4 79 +11 +11 1006.1 997.2
ЮВ 1 30 км 10/9 1500 м
[Sc]
+10.3 +7.2 81 +10 +10 1006.9 997.9 +5.6 +12.4
ЮВ 1 21 км н/о +9.4 +7.2 86 +9 +9 1007.2 998.2
штиль 0 21 км н/о +8.2 +6.8 91 +7 +7 1007.6 998.6
В 1 9000 м н/о +7.7 +6.6 93 +7 +7 1008.2 999.2
штиль 0 9000 м н/о +6.9 +5.8 93 +6 +6 1008.8 999.7
ЮВ 1
{8}
6000 м дымка н/о +6.8 +6.1 95 +6 +6 1009.0 999.9
штиль 0
{8}
8000 м дымка н/о +6.5 +5.9 96 +5 +5 1009.6 1000.5
штиль 0 7000 м дымка н/о +6.1 +5.5 96 +5 +5 1009.7 1000.6
В 2 7000 м дымка н/о +5.7 +5.1 96 +3 +3 1009.9 1000.8
В 1 7000 м дымка н/о +4.6 +4.0 96 +3 +3 1010.0 1000.8
В 2 4400 м дымка н/о +4.4 +4.1 98 +1 +1 1010.4 1001.2
В 1 1600 м дымка н/о +3.9 +3.6 98 +2 +2 1010.9 1001.7
штиль 0 5000 м туман на расстоянии 1/0
[Ac trans]
+4.1 +3.8 98 +3 +3 1011.4 1002.2 +2.4 +10.4
Ю 1 8000 м туман на расстоянии 1/0
[Ac trans Ci fib]
+5.6 +4.2 91 +4 +6 1012.1 1002.9
ЮВ 1 12 км 1/0
[Ac trans Ci fib]
+9.7 +6.4 80 +9 +12 1012.3 1003.3
Ю 2 20 км 1/0
[Ac trans Ci fib]
+11.7 +6.8 72 +11 +15 1012.7 1003.7
ЮВ 2 25 км 1/1 600 м
[Cu hum]
+13.5 +7.5 67 +13 +18 1012.6 1003.7
Ю 2 40 км 1/1 600 м
[Cu hum]
+14.9 +4.8 51 +15 +21 1012.4 1003.5
З 1 40 км 1/1 1000 м
[Cu hum Ci fib]
+15.8 +4.5 47 +17 +23 1012.1 1003.3
Ю 2 40 км 3/1 1000 м
[Cu med, cong Ci fib]
+16.1 +4.5 46 +16 +20 1011.9 1003.1
Ю 2 40 км 5/4 1000 м
[Cu med, cong Ci fib]
+16.2 +4.6 46 +16 +18 1012.0 1003.2
Ю 2 40 км 8/3 1000 м
[Sc diur, vesp Ci]
+15.5 +5.7 52 +16 +16 1012.1 1003.3
Ю 2 45 км 8/1 1000 м
[Sc diur, vesp Ci fib]
+15.3 +6.6 56 +15 +15 1012.5 1003.7
ЮВ 1 35 км 6/1 1000 м
[Sc Ci fib]
+13.2 +6.5 64 +14 +14 1012.5 1003.6
Ю 1 25 км 5/0
[Ci fib]
+11.9 +6.6 70 +12 +12 1012.8 1003.8 +4.1 +16.6
Ю 1 13 км н/о +11.3 +6.6 73 +11 +11 1012.9 1003.9
Ю 2 25 км н/о +10.1 +6.6 79 +9 +9 1012.6 1003.6
Ю 1 18 км н/о +9.4 +6.3 81 +9 +9 1012.6 1003.6
Ю 1 14 км н/о +8.9 +6.3 84 +8 +8 1012.5 1003.5
В 1 11 км н/о +7.1 +5.6 90 +6 +6 1012.5 1003.4
ЮВ 1 10 км н/о +6.8 +5.7 93 +6 +6 1012.4 1003.3
Ю 1 11 км дымка н/о +7.0 +6.3 95 +6 +6 1011.9 1002.8
ЮВ 1 9000 м н/о +7.1 +6.2 94 +6 +6 1011.5 1002.4
Ю 2 8000 м дымка н/о +6.8 +6.1 95 +4 +4 1011.2 1002.1
Ю 2 12 км н/о +7.1 +6.0 93 +5 +5 1011.0 1001.9
Ю 2 7000 м дымка н/о +6.5 +5.6 94 +4 +4 1010.9 1001.8
Ю 2 12 км 9/0
[Cs]
+7.7 +6.2 90 +6 +6 1010.6 1001.5 +6.4 +12.0
Ю 2 20 км 9/0
[Cs]
+8.4 +6.2 86 +6 +7 1009.7 1000.7
Ю 2 25 км 9/0
[Ac und Cs]
+10.4 +7.6 83 +9 +11 1009.1 1000.1
Ю 3 25 км 10/3 1500 м
[Sc Ac As Cs]
+12.2 +7.7 74 +11 +12 1008.3 999.4
Ю 3 30 км 10/3 1500 м
[Sc Ac As]
+12.8 +7.7 71 +12 +13 1007.5 998.6
Ю 5 40 км 9/0
[Ac As Cs]
+14.0 +7.5 65 +12 +14 1006.8 998.0
ЮЗ 5 40 км 10/9 600 м
[Sc]
+14.1 +7.4 64 +12 +13 1006.1 997.3
ЮЗ 5
{10}
12 км слаб. ливневой дождь 10/9 600 м
[Cb cap]
+12.1 +8.6 79 +10 +10 1006.0 997.1
Ю 4 12 км слаб. дождь {ливн. дождь} 10/9 600 м
[Sc]
+11.2 +9.6 90 +9 +9 1005.5 996.6
Ю 3
{10}
15 км в посл. час дождь {ливн. дождь} 10/9 200 м
[Sc]
+10.9 +10.0 94 +9 +9 1005.1 996.2
ЮЗ 3 8000 м слаб. дождь 10/10 100 м
[Sc]
+10.6 +9.8 95 +8 +8 1005.1 996.2
ЮЗ 3 12 км в посл. час дождь 10/10 200 м
[Sc]
+10.6 +10.0 96 +8 +8 1005.2 996.3
ЮЗ 3
{10}
15 км в посл. час дождь {ливн. дождь} 10/9 200 м
[Sc]
+10.7 +9.9 95 +9 +9 1005.5 996.6 +7.7 +14.3 1
ЮЗ 2 11 км н/о +10.0 +9.4 96 +8 +8 1005.9 996.9
ЮЗ 2 11 км н/о +9.7 +9.2 97 +8 +8 1006.3 997.3
ЮЗ 3 10 км слаб. ливневой дождь н/о +10.1 +9.6 97 +8 +8 1006.7 997.7
З 2 12 км н/о +10.7 +10.2 97 +9 +9 1007.3 998.4
З 4 35 км н/о +11.7 +10.4 92 +9 +9 1008.3 999.4
З 4 40 км н/о +11.7 +10.1 90 +9 +9 1009.3 1000.4 0.4
З 3 29 км н/о +11.3 +10.0 92 +9 +9 1009.9 1001.0
З 4 27 км н/о +11.5 +9.7 89 +9 +9 1010.4 1001.5
З 3
{9}
24 км н/о +11.4 +9.6 89 +10 +10 1010.9 1001.9
З 3 26 км н/о +11.0 +9.4 90 +9 +9 1011.1 1002.1
З 3 16 км н/о +10.4 +9.5 94 +8 +8 1011.6 1002.6
З 3
{9}
20 км 9/9 240 м
[Sc]
+10.6 +9.5 93 +8 +8 1011.7 1002.7 +9.5 +11.8 0.4 1.7
З 3 30 км 10/10 330 м
[Sc]
+10.5 +9.1 91 +8 +8 1011.9 1002.9
З 4 30 км 9/9 480 м
[Sc]
+11.9 +9.5 85 +10 +10 1012.3 1003.3
З 4
{9}
30 км 9/9 300 м
[Sc]
+13.3 +9.7 79 +12 +12 1012.0 1003.1
З 5
{11}
15 км 9/6 600 м
[Cu med, cong Ac trans Ci fib]
+14.2 +9.2 72 +13 +13 1011.9 1003.0
З 5 25 км 9/8 600 м
[Cu med, cong Ac trans]
+14.8 +9.4 70 +13 +14 1011.9 1003.0
З 4
{11}
10 км в посл. час ливневой дождь 9/6 600 м
[Cb cap Ac cuf]
+14.0 +9.6 75 +13 +13 1011.9 1003.0 0.0
З 4 30 км в посл. час ливневой дождь 4/3 600 м
[Cb cap Ac trans]
+14.6 +8.8 68 +13 +15 1011.6 1002.7
З 5 40 км 6/6 600 м
[Cu med, cong Ac trans]
+15.4 +9.1 66 +14 +15 1011.3 1002.5
З 5 40 км {ливн. дождь} 4/4 1000 м
[Cb calv]
+15.2 +9.1 67 +14 +14 1011.3 1002.5
СЗ 3
{12}
35 км в посл. час ливневой дождь 3/3 600 м
[Cb cap]
+12.2 +8.1 76 +11 +11 1012.0 1003.1
З 2 40 км 3/3 600 м
[Cb cap]
+11.5 +8.4 81 +10 +10 1012.6 1003.6
З 3
{12}
40 км {ливн. дождь} ясно +11.8 +8.3 79 +10 +10 1013.1 1004.1 +10.4 +15.6 0.1
СЗ 3 45 км н/о +11.5 +8.4 81 +10 +10 1013.6 1004.6
З 3 40 км н/о +11.8 +8.6 81 +10 +10 1014.0 1005.0
З 3 35 км н/о +11.1 +8.5 84 +9 +9 1014.3 1005.3
З 4 26 км н/о +10.9 +8.6 86 +8 +8 1014.4 1005.4
З 4 22 км н/о +10.7 +8.8 88 +8 +8 1014.8 1005.8
З 4 21 км н/о +10.5 +8.8 89 +8 +8 1015.2 1006.2
З 4 20 км н/о +10.5 +8.8 89 +8 +8 1015.4 1006.4
СЗ 4 20 км н/о +10.8 +8.9 88 +8 +8 1015.6 1006.6
СЗ 4 21 км н/о +11.0 +8.9 87 +9 +9 1015.9 1006.9
З 4 27 км н/о +10.8 +8.7 87 +8 +8 1015.9 1006.9
СЗ 4
{9}
30 км н/о +11.3 +9.0 86 +9 +9 1016.5 1007.5
СЗ 5
{10}
30 км 8/8 600 м
[Sc]
+11.4 +9.1 86 +9 +9 1016.9 1007.9 +10.3 +11.8 0.1
СЗ 4
{12}
30 км 9/9 300 м
[Cu med, cong]
+11.9 +9.1 83 +10 +10 1017.4 1008.4
СЗ 4
{9}
40 км слаб. ливневой дождь 10/10 600 м
[Cb cap]
+12.3 +9.3 82 +10 +10 1018.1 1009.1
Местоположение метеостанции Гожув-Велькопольски (Польша): широта 52.75 долгота 15.28 высота над уровнем моря 73 м.
В архиве по умолчанию представлена погода в Гожув-Велькопольски за последнюю неделю. Архивные данные за месяц целиком и за предыдущие месяцы, начиная с января 2011 года, Вы можете получить, выбрав интересующий диапазон дат из раскрывающегося списка и нажав кнопку "Найти!".
*Определитесь, кто Вы:
Внимание! Время в таблицах - всемирное. Для получения местного времени необходимо прибавить поправку, которая равна 1 ч.
Смотрите также архив погоды в соседних городах и на ближайших метеорологических станциях:
Партнеры нашего сайта:      
Пояснения к столбцам:
  • Ветер - указаны скорость ветра в м/с - средняя за 10 мин, порывы в срок и между сроками (в фигурных скобках) и направление, откуда дует ветер: С - северный,
  • СВ - северо-восточный, В - восточный, ЮВ - юго-восточный, Ю - южный, ЮЗ - юго-западный, З - западный, СЗ - северо-западный.
  • Видимость - горизонтальная дальность видимости в метрах или километрах. При видимости от 1 до 10 км при отсутствии осадков обычно наблюдается дымка, при ухудшении видимости до 1 км и менее - туман. В сухую погоду видимость может ухудшаться дымом, пылью или мглою.
  • Явления - указаны атмосферные явления, наблюдавшиеся в срок или в последний час перед сроком; фигурными скобками обозначены явления, наблюдавшиеся между сроками (за 1-3 часа до срока); квадратными скобками обозначены град или гололедные отложения с указанием их диаметра в мм.
  • Облачность - указаны через наклонную черту общая и нижняя облачность в баллах и высота нижней границы облаков в метрах; квадратными скобками обозначены формы облаков: Ci - перистые, Cs - перисто-слоистые, Cc - перисто-кучевые, Ac - высококучевые, As - высокослоистые, Sc - слоисто-кучевые, Ns - слоисто-дождевые, Cu - кучевые, Cb - кучево-дождевые. Подробнее классификацию облаков см. в Атласе облаков (PDF).
  • T - Температура воздуха - температура, измеренная на высоте 2 м над землей.
  • Td - Температура точки росы - температура, при понижении до которой содержащийся в воздухе водяной пар достигнет насыщения.
  • f - Относительная влажность воздуха - влажноcть воздуха, измеренная на высоте 2 м над землей.
  • Te - Эффективная температура - температура, которую ощущает одетый по сезону человек в тени. Характеристика душности погоды. При расчете учитывается влияние влажности воздуха и скорости ветра на теплоощущения человека.
  • Tes - Эффективная температура на солнце - температура, которую ощущает человек, с поправкой на солнечный нагрев. Характеристика знойности погоды. Зависит от высоты солнца над горизонтом, облачности и скорости ветра. Ночью, в пасмурную погоду, а также при ветре 12 м/с и более поправка равна нулю.
  • P - Атмосферное давление - приведенное к уровню моря атмосферное давление.
  • Po - Атмосферное давление - измеренное на уровне метеостанции атмосферное давление.
  • Tmin - Минимальная температура - минимум температуры воздуха на высоте 2 м над землей.
  • Tmax - Максимальная температура - максимум температуры воздуха на высоте 2 м над землей.
  • R - Количество осадков - Количество выпавших осадков за период времени, мм. При наведении курсора мыши на число - период времени, за который выпало указанное количество осадков.
  • R24 - Количество осадков - Количество выпавших осадков за 24 часа, мм.
  • S - Снежный покров - Высота снежного покрова, см. При наведении курсора мыши на число - состояние снежного покрова и степень покрытия местности в баллах.